    Observer details:
    046 Klet.  Observer M. Honkova.  0.57-m f/5.2 reflector + CCD.
    104 San Marcello Pistoiese.  Observers L. Tesi, G. Fagioli, M. Mazzucato,
        F. Dolfi.  Measurer L. Tesi.  0.60-m f/4 reflector + CCD.
    204 Schiaparelli Observatory.  Observer L. Buzzi.  0.60-m f/4.64 reflector
        + CCD.
    235 CAST Observatory, Talmassons.  Observer R. Ligustri.  0.35-m f/5 reflector
        + CCD.
    246 Klet Observatory-KLENOT.  Observer M. Tichy.  1.06-m KLENOT Telescope
        + CCD.
    300 Bisei Spaceguard Center--BATTeRS.  Observers K. Nishiyama, S. Okumura.
        1.0-m f/3.0 reflector + CCD.
    595 Farra d'Isonzo.  Observers L. Bittesini, G. Lombardi, E. Pettarin,
        F. Piani.  Measurer E. Pettarin.  0.30-m f/4.5 reflector + CCD.
    673 Table Mountain Observatory, Wrightwood.  Observer J. Young.  0.61-m f/16
        Cassegrain + CCD.
    704 Lincoln Laboratory ETS, New Mexico.  Observers M. Bezpalko, D. Torres,
        R. Kracke, G. Spitz, J. Kistler.  Measurers J. Stuart, S. Scruggs.  1.0-m
        f/2.15 reflector + CCD.
    854 Sabino Canyon Observatory, Tucson.  Observer J. E. McGaha.  0.36-m f/10.0
        Schmidt-Cassegrain + CCD.
    A24 New Millennium Observatory, Mozzate.  Observer E. Cozzi.  0.36-m f/7.6
        Schmidt-Cassegrain + CCD.
    G96 Mt. Lemmon Survey.  Observers A. D. Grauer, R. A. Kowalski.  Measurers
        E. C. Beshore, A. Boattini, G. J. Garradd, A. R. Gibbs, A. D. Grauer,
        R. E. Hill, R. A. Kowalski, S. M. Larson, R. H. McNaught.  1.5-m reflector
        + CCD.
    I77 CEAMIG-REA Observatory, Belo Horizonte.  Observers C. Jacques, E. Pimentel,
        L. Duczmal.  Measurer C. Jacques.  0.30-m f/3.0 Schmidt-Cassegrain + CCD.
    J66 Kinver.  Observer K. Hills.  0.41-m f/6.9 Ritchey-Chretien + CCD.
    J71 Willow Bank Observatory.  Observer I. Griffin.  0.35-m Schmidt-Cassegrain
        + CCD.
    J95 Great Shefford.  Observer P. Birtwhistle.  0.40-m f/6.0 Schmidt-Cassegrain
        + CCD.
    
    Orbital elements:
    2008 CP116                                               Earth MOID = 0.0721 AU
    Epoch 2007 Oct. 27.0 TT = JDT 2454400.5                 MPC
    M 334.78084              (2000.0)            P               Q
    n   0.25452626     Peri.  174.52689     -0.65815684     -0.75286100
    a   2.4659314      Node   316.63241     +0.69045228     -0.60067189
    e   0.5716256      Incl.    0.45614     +0.30017530     -0.26906057
    P   3.87           H   23.0           G   0.15           U   5
    Residuals in seconds of arc
    071215 G96  0.0   0.4-    080212 300  0.7-  0.5-    080212 046  0.5+  0.2-
    071215 G96  0.0   0.2-    080212 300  1.3-  0.1-    080212 046  0.4-  0.4-
    071215 G96  0.1+  0.1+    080212 104 (0.7-  3.1-)   080212 J71  0.2-  0.5+
    071215 G96  0.0   0.0     080212 104  0.7-  0.5-    080212 J71  0.6+  0.2+
    071231 G96  0.1-  0.1-    080212 104 (2.0+  1.3-)   080212 J71  0.8+  0.2-
    071231 G96  0.1-  0.1+    080212 235  0.1+  0.3-    080212 J71  0.5+  0.0
    071231 G96  0.1-  0.0     080212 235  0.0   0.4-    080212 595  0.5+  0.6+
    071231 G96  0.3+  0.2+    080212 J95  0.0   0.1-    080212 595  0.4+  0.3-
    080211 704  0.3+  0.3+    080212 J95  0.4+  0.3-    080212 595  0.0   0.2-
    080211 704  0.2+  0.2+    080212 J95  0.0   0.1-    080213 J66  0.2-  0.3-
    080211 704  0.1-  0.1+    080212 A24  0.1+  0.6+    080213 J66  0.1-  0.2-
    080211 704  0.0   0.6+    080212 A24  0.2-  0.3+    080213 J66  0.2+  0.0
    080211 704  0.6+  0.2+    080212 A24  0.2-  0.4+    080213 J66  0.0   0.1-
    080212 673  0.5-  0.4+    080212 246  0.2+  0.2+    080213 I77  0.3-  0.3-
    080212 673  0.5-  0.5+    080212 246  0.3-  0.2+    080213 I77  0.1+  0.4-
    080212 673  0.2+  0.0     080212 246  0.1-  0.3+    080213 I77  0.1+  0.3-
    080212 673  0.4+  0.1+    080212 246  0.1-  0.3+    080213 204  0.1-  0.1-
    080212 704  0.1+  0.4+    080212 A24  0.1-  0.2+    080213 204  0.0   0.1-
    080212 704  0.1-  0.1+    080212 246  0.6-  0.0     080213 204  0.1-  0.0
    080212 854  0.2-  0.2+    080212 246  0.4-  0.3+    080213 G96  0.2-  0.2-
    080212 854  0.4+  0.8+    080212 246  0.2+  0.1+    080213 G96  0.3+  0.4-
    080212 854  0.1-  0.4+    080212 A24  0.1-  0.1+    080213 G96  0.3+  0.2-
    080212 704  0.3+  0.3+    080212 046  0.6-  0.4-    080213 G96  0.2+  0.3-
    080212 704  0.4+  0.6+    080212 046  0.6+  0.5-    080213 673  0.2-  0.2+
    080212 704  0.6+  0.4+    080212 A24  0.1+  0.1+    080213 673  0.1-  0.3+
    080212 300  0.2-  0.1-    080212 046  0.6-  1.0-    080213 673  0.5-  0.3+
    080212 300  0.6-  0.7+    080212 046  0.6-  0.7-    080213 673  0.1-  0.2+
    080212 300  0.3+  0.1-    080212 046  0.4-  0.5-
    
    Ephemeris:
    2008 CP116               a,e,i = 2.47, 0.57, 0                   q = 1.0563
    Date    TT    R. A. (2000) Decl.     Delta      r     Elong.  Phase     V
    2008 02 14    08 51.56   +16 52.4    0.0801   1.065   166.1    12.9    18.4
    2008 02 24    10 17.70   +08 57.5    0.0993   1.089   177.8     2.0    18.4
    2008 03 05    11 07.01   +03 41.8    0.133    1.125   177.5     2.2    19.1
    2008 03 15    11 33.83   +00 49.2    0.178    1.173   177.9     1.8    19.8
    2008 03 25    11 49.60   -00 46.9    0.233    1.229   173.1     5.6    20.7
    2008 04 04    12 00.25   -01 47.0    0.299    1.293   166.2    10.6    21.6
    
    Gareth V. Williams           (C) Copyright 2008 MPC           M.P.E.C. 2008-C87
    

    Read MPEC 2008-C86 Read MPEC 2008-C88


    MPEC number:

    Enter an MPEC number in one of the following forms:

    • 1997-B01 (the full form)
    • J97B01 (the packed version of the full form)
    • B01 (the abbreviated form)